Location: Voyageurs National Park
(48.5020°N, 92.9292°W)
Time: 17:40:33
(UTC-05:00)

PCSat - Visible Passes

Search period start: 19 August 2017 00:00
Search period end: 29 August 2017 00:00
Orbit: 785 x 795 km, 67.1° (Epoch: 19 August)

Date Brightness Start Highest point End Pass type
(mag) Time Alt. Az. Time Alt. Az. Time Alt. Az.
19 Aug 10.2 01:06:33 48° WNW 01:07:15 51° NW 01:12:35 10° NNE visible
19 Aug 12.0 02:48:32 10° WNW 02:51:57 16° NNW 02:55:22 10° NNE visible
19 Aug 12.4 04:36:39 10° N 04:37:47 11° N 04:38:55 10° NNE visible
19 Aug 11.2 22:55:19 19° ENE 22:55:19 19° ENE 22:57:35 10° ENE visible
20 Aug 9.8 00:36:00 64° WNW 00:36:18 65° NW 00:41:44 10° NNE visible
20 Aug 11.9 02:16:55 10° WNW 02:20:45 19° NNW 02:24:35 10° NNE visible
20 Aug 12.4 04:05:16 10° NNW 04:06:28 11° N 04:07:39 10° N visible
20 Aug 11.4 22:24:42 14° E 22:24:42 14° E 22:26:10 10° ENE visible
21 Aug 9.5 00:05:21 84° WNW 00:05:22 84° NW 00:10:51 10° NE visible
21 Aug 11.7 01:46:02 13° W 01:49:35 22° NNW 01:53:49 10° NNE visible
21 Aug 12.4 03:33:38 10° NNW 03:35:08 11° N 03:36:38 10° N visible
21 Aug 12.3 05:18:18 10° NNW 05:21:05 14° NNE 05:23:52 10° NE visible
21 Aug 11.6 21:53:57 11° E 21:53:57 11° E 21:54:19 10° ENE visible
21 Aug 9.4 23:34:36 75° ESE 23:34:36 75° ESE 23:39:56 10° NE visible
22 Aug 11.4 01:15:16 16° W 01:18:27 26° NW 01:23:02 10° NNE visible
22 Aug 12.4 03:01:54 10° NNW 03:03:50 12° NNW 03:05:46 10° N visible
22 Aug 12.4 04:47:30 10° N 04:49:48 13° NNE 04:52:07 10° NE visible
22 Aug 9.6 23:03:41 58° ESE 23:03:41 58° ESE 23:08:59 10° NE visible
23 Aug 11.1 00:44:19 19° W 00:47:22 32° NW 00:52:14 10° NNE visible
23 Aug 12.3 02:30:08 10° NW 02:32:32 13° NNW 02:34:57 10° N visible
23 Aug 12.5 04:16:41 10° N 04:18:31 12° N 04:20:20 10° NNE visible
23 Aug 9.8 22:32:27 43° SE 22:32:50 43° ESE 22:37:58 10° NE visible
24 Aug 10.8 00:13:05 20° WSW 00:16:19 39° NW 00:21:26 10° NNE visible
24 Aug 12.3 01:58:23 10° NW 02:01:16 14° NNW 02:04:09 10° NNE visible
24 Aug 12.6 03:45:47 10° N 03:47:12 11° N 03:48:37 10° NNE visible
24 Aug 12.2 05:28:39 10° NNW 05:32:48 21° NNE 05:36:55 10° E visible
24 Aug 10.2 22:00:42 29° SE 22:02:05 33° ESE 22:06:52 10° NE visible
24 Aug 10.4 23:41:15 17° WSW 23:45:18 49° NW 23:50:36 10° NNE visible
25 Aug 12.2 01:26:42 10° WNW 01:30:02 16° NNW 01:33:23 10° NNE visible
25 Aug 12.6 03:14:44 10° N 03:15:53 11° N 03:17:02 10° NNE visible
25 Aug 12.3 04:57:52 10° NNW 05:01:37 18° NNE 05:05:21 10° ENE visible
25 Aug 10.5 21:27:04 10° SSE 21:31:21 25° ESE 21:35:40 10° NE visible
25 Aug 9.9 23:08:57 10° SW 23:14:20 63° NW 23:19:45 10° NNE visible
26 Aug 12.1 00:55:04 10° WNW 00:58:49 19° NNW 01:02:36 10° NNE visible
26 Aug 12.6 02:43:24 10° NNW 02:44:34 11° N 02:45:43 10° N visible
26 Aug 12.4 04:27:05 10° NNW 04:30:25 16° NNE 04:33:43 10° ENE visible
26 Aug 10.9 20:57:02 10° SSE 21:00:40 18° ESE 21:04:18 10° ENE visible
26 Aug 9.6 22:37:58 10° SW 22:43:24 81° NW 22:48:53 10° NNE visible
27 Aug 11.9 00:23:30 10° W 00:27:39 22° NNW 00:31:49 10° NNE visible
27 Aug 12.6 02:11:48 10° NNW 02:13:14 11° N 02:14:40 10° N visible
27 Aug 12.5 03:56:19 10° NNW 03:59:10 14° NNE 04:02:01 10° NE visible
27 Aug 11.2 05:39:03 10° NNW 05:44:08 39° NE 05:49:12 10° ESE visible
27 Aug 9.4 22:07:05 10° SSW 22:12:31 79° ESE 22:17:58 10° NE visible
27 Aug 11.6 23:52:01 10° W 23:56:31 26° NW 00:01:02 10° NNE visible
28 Aug 12.6 01:40:04 10° NNW 01:41:55 12° N 01:43:47 10° N visible
28 Aug 12.6 03:25:31 10° N 03:27:54 13° NNE 03:30:16 10° NE visible
28 Aug 11.6 05:08:14 10° NNW 05:13:05 32° NE 05:17:55 10° ESE visible
28 Aug 9.5 21:36:20 10° SSW 21:41:40 60° ESE 21:47:01 10° NE visible
28 Aug 11.3 23:20:37 10° WSW 23:25:25 31° NW 23:30:15 10° NNE visible
